Location: Newark
(13.9174°N, 1.2431°E)
Time: 12:16:07
(UTC+00:00)

Hubble Space Telescope - Visible Passes

Search period start: 21 October 2019 00:00
Search period end: 31 October 2019 00:00
Orbit: 536 x 540 km, 28.5° (Epoch: 20 October)

Date Brightness Start Highest point End Pass type
(mag) Time Alt. Az. Time Alt. Az. Time Alt. Az.
23 Oct 3.5 04:02:50 10° S 04:04:46 13° SSE 04:06:40 10° ESE visible
24 Oct 3.1 03:53:41 18° SSE 03:54:10 18° SSE 03:57:00 10° ESE visible
25 Oct 3.0 03:44:29 23° SE 03:44:29 23° SE 03:46:57 10° E visible
25 Oct 0.9 05:20:35 10° WSW 05:24:39 58° NNW 05:28:42 10° NE visible
26 Oct 3.3 03:35:11 20° E 03:35:11 20° E 03:36:44 10° E visible
26 Oct 1.3 05:10:33 12° W 05:14:07 43° NNW 05:18:03 10° NE visible
27 Oct 3.8 03:25:47 13° E 03:25:47 13° E 03:26:21 10° ENE visible
27 Oct 1.6 05:01:10 18° WNW 05:03:35 33° NNW 05:07:21 10° NE visible
28 Oct 2.0 04:51:39 22° NW 04:53:06 27° NNW 04:56:36 10° NE visible
29 Oct 2.2 04:42:03 21° NNW 04:42:37 22° NNW 04:45:51 10° NE visible
30 Oct 2.6 04:32:22 18° NNW 04:32:22 18° NNW 04:35:04 10° NNE visible
